Powrót do katalogu

USA 418

AktywnyMilitariaVLEO
NORAD 61039·PAYLOAD·🇺🇸 United States

Wystrzelony Sep 6, 2024 z Vandenberg Space Force Base

Loading…

Następne Przeloty (najbliższe 24 godziny)

TLE

NieaktualneSource: Mike McCants

Epoka: Sep 5, 2026, 20:48 UTC

1 61039U 24160U   26248.86725177 0.00000000  00000-0  00000-0 0    00
2 61039  70.0140 154.6169 0004000  79.3701 280.6298 14.96713008    00

Śledź USA 418 w czasie rzeczywistym z AllMySat

Download on the App Store